Location: Il Ritiro
(43.4167°N, 13.1333°E)
Time: 17:06:05
(UTC+00:00)

Cosmos 2084 - Pass Details

Date: 05 July 2020
Orbit: 571 x 612 km, 62.8° (Epoch: 11 August)

Event Time Altitude Azimuth Distance (km) Brightness Sun altitude
Rises 21:40:50 0° 318° (NW) 2,882 8.3 -20.7°
Reaches altitude 10° 21:43:09 10° 313° (NW) 1,972 7.1 -20.8°
Maximum altitude 21:47:29 51° 238° (WSW) 767 3.9 -21.1°
Enters shadow 21:48:03 48° 211° (SSW) 802 3.8 -21.1°
